[[{"header":{"parameterUnit":"m.s-1","parameterCategory":1,"la1":30.2991,"la2":30.254,"lo1":-89.0895,"lo2":-89.0444,"dy":0.0017,"dx":0.0017,"nx":28,"ny":28,"refTime":"2023-08-07T21:00:00:Z","depth":0,"parameterNumber":2,"parameterNumberName":"U-component_of_WINDS"},"data":[0,0,0,0,0,0,0,0,0,0,0,0,0,0,0,0,0,0,0,0,0,0,0,0,0,0,0,0,0,0,0,0,0,0,0,0,0,0,0,0,0,0,0,0,0,0,0,0,0,0,0,0,0,0,0,0,0,0,0.9547,0.9548,0,0.9697,0.9699,0.9701,0.9757,0.9756,0.9756,0.9755,0.9909,0.9913,0.9918,0,0,0,0,0,0,0,0,0,0,0,0,0,0.9305,0.9309,0.9546,0.9548,0.955,0.9697,0.9699,0.9701,0.9757,0.9756,0.9756,0.9755,0.9907,0.9913,0.9918,0,0,0,0,0,0,0,0,0,0,0,0,0,0.9428,0.931,0.9546,0.9596,0.9602,0.9697,0.9699,0.9702,0.9757,0.9756,0.9756,0.9755,0.9905,0.9912,0.9919,0.9975,0,0,0.994,0.9942,0,0,0,0,0,0,0,0,0.9421,0.9437,0.9587,0.9592,0.9599,0.9708,0.967,0.9793,0.9757,0.9698,0.9755,0.9755,0.9842,0.9854,0.9884,0.9982,0.9989,0.994,0.9944,0.9947,0.9949,0,0,0,0,0,0,0,0.9412,0.9431,0.9606,0.9589,0.9596,0.961,0.9627,0.9694,0.9772,0.9703,0.9708,0.9725,0.9846,0.9877,0.9888,0.9991,0.994,0.9946,0.995,0.9953,1.0143,1.0144,0,0,0,0,0,0,0.9396,0.9423,0.9601,0.9611,0.9507,0.9615,0.9634,0.9674,0.9772,0.9786,0.9725,0.9727,0.9866,0.988,0.9894,0.9966,0.9947,0.9953,0.9957,1.0142,1.0143,1.0144,0,0,0,0,0,0,0.939,0.9411,0.9595,0.9518,0.9543,0.962,0.9664,0.9677,0.9709,0.9788,0.9803,0.9743,0.9866,0.9884,0.9955,0.9972,0.9957,0.9963,1.0141,1.0142,1.0144,1.0111,0,0,0,0,0,0,0.9383,0.9409,0.9431,0.9518,0.9547,0.9654,0.9665,0.968,0.972,0.9724,0.9809,0.9823,0.9867,0.9944,0.9961,0.9981,0.9968,1.014,1.0142,1.0143,1.0111,1.0111,1.0112,0,0,0,0,0,0.9374,0.9416,0.9432,0.9453,0.9577,0.9655,0.9671,0.9721,0.9722,0.9745,0.9796,0.982,0.9967,0.9951,0.9971,0.9993,1.0139,1.0141,1.0143,1.0111,1.0111,1.0112,0,0,0,0,0,0,0.9329,0.9428,0.9447,0.9519,0.9578,0.9664,0.9695,0.972,0.978,0.9781,0.9841,0.986,0.9925,0.9966,0.9946,1.0053,1.0055,1.0061,1.0023,1.0025,1.0025,1.0013,0.9974,0,0,0,0,0,0.9327,0.9383,0.9467,0.9521,0.955,0.9617,0.9653,0.9687,0.975,0.9776,0.9832,0.9892,0.9953,0.9991,1.005,1.0117,1.0137,1.0142,1.0143,1.0143,1.0147,1.0186,1.0189,1.0152,1.0152,1.0152,0,0,0.9324,0.9385,0.9416,0.9513,0.9563,0.9619,0.9638,0.9696,0.9738,0.9785,0.9855,0.9898,0.9969,1.0038,1.0071,1.0074,1.0162,1.0145,1.0145,1.015,1.0188,1.0192,1.0195,1.0153,1.0153,1.0153,0,0,0.9346,0.9399,0.945,0.95,0.9575,0.962,0.9632,0.9714,0.9745,0.9816,0.9852,0.9903,1.0005,1.0054,1.0093,1.0134,1.0158,1.0152,1.0153,1.019,1.0193,1.0196,1.021,1.0215,1.0156,1.0156,1.0156,0,0.9333,0.9419,0.9473,0.953,0.9571,0.9616,0.9668,0.9713,0.9804,0.9831,0.9834,0.9963,1.0014,1.0095,1.0105,1.0135,1.015,1.0142,1.0188,1.0191,1.0195,1.021,1.0215,1.0155,1.0155,1.0155,1.0155,0,0.9398,0.9458,0.949,0.9577,0.9622,0.9676,0.9737,0.9776,0.9806,0.985,0.9922,0.9985,1.0058,1.0079,1.0109,1.0165,1.0164,1.0176,1.018,1.0196,1.0211,1.0217,1.0153,1.0153,1.0154,1.0154,0,0,0.9396,0.9513,0.9524,0.9564,0.965,0.9697,0.9753,0.9825,0.9857,0.9918,0.9966,1.0051,1.0063,1.0107,1.0142,1.0174,1.0202,1.0183,1.0185,1.0184,1.0267,1.0257,1.0263,1.0219,1.022,1.0221,1.0261,0,0.943,0.9533,0.9583,0.9663,0.9718,0.9762,0.981,0.9868,0.9911,0.9963,1.001,1.007,1.0081,1.0107,1.0141,1.0192,1.022,1.019,1.0264,1.0266,1.0245,1.0271,1.0261,1.0295,1.0267,1.0268,1.0269,0,0.9484,0.9545,0.9631,0.9711,0.9736,0.9779,0.9849,0.9899,0.9966,0.9994,1.0043,1.0077,1.0137,1.0136,1.0219,1.0197,1.023,1.026,1.0262,1.0271,1.0268,1.028,1.0308,1.0313,1.0279,1.0278,1.0277,0,0.9473,0.9578,0.9643,0.9676,0.9771,0.98,0.9841,0.9907,0.9947,1.0007,1.0034,1.0101,1.0137,1.0188,1.0239,1.0234,1.0317,1.032,1.0342,1.0341,1.0358,1.0356,1.0391,1.0379,1.0379,1.0379,1.0379,0,0.9506,0.9557,0.9639,0.9679,0.9737,0.9794,0.985,0.9894,0.9952,1.0001,1.0042,1.0087,1.0152,1.0205,1.0245,1.0308,1.0324,1.0349,1.0359,1.0345,1.0342,1.0368,1.0367,1.0381,1.038,1.038,1.038,0,0.9504,0.9562,0.9635,0.972,0.9742,0.9781,0.9853,0.9893,0.9937,0.9999,1.0016,1.0086,1.015,1.0207,1.0292,1.0319,1.0383,1.0395,1.036,1.0366,1.0385,1.0382,1.0437,1.0447,1.0428,1.0428,1.0429,0,0.9521,0.9562,0.9651,0.9687,0.9727,0.9784,0.9826,0.9883,0.9924,1.0003,1.0033,1.01,1.0157,1.0258,1.0316,1.0381,1.0395,1.041,1.0406,1.039,1.0396,1.0393,1.0397,1.041,1.041,1.041,1.041,0,0.9546,0.9572,0.963,0.9699,0.9747,0.9803,0.986,0.9887,0.9955,0.9999,1.0066,1.011,1.0197,1.0263,1.0334,1.0376,1.0404,1.0411,1.042,1.0406,1.0384,1.0396,1.036,1.0409,1.041,1.041,1.041,1.041,0.9554,0.9592,0.966,0.9724,0.9773,0.9826,0.9868,0.9918,0.9974,1.005,1.008,1.0148,1.0213,1.0312,1.0354,1.0407,1.0412,1.0424,1.0427,1.043,1.0427,1.0375,1.042,1.042,1.0421,1.0421,1.0421,0,0.958,0.9626,0.9684,0.9764,0.9813,0.9836,0.9901,0.9941,1.0,1.0059,1.0114,1.0191,1.0255,1.0318,1.0386,1.0417,1.0431,1.0432,1.0431,1.044,1.0419,1.0405,1.042,1.042,1.042,1.042,1.0419,1.0419,0.96,0.9665,0.9699,0.9789,0.9835,0.9902,0.9937,0.9986,1.0033,1.0117,1.0171,1.0212,1.0272,1.0345,1.0405,1.0422,1.0445,1.0442,1.0463,1.0442,1.0441,1.0441,1.0428,1.0447,1.0447,1.0479,1.0479,1.048]},{"header":{"parameterUnit":"m.s-1","parameterCategory":1,"la1":30.2991,"la2":30.254,"lo1":-89.0895,"lo2":-89.0444,"dy":0.0017,"dx":0.0017,"nx":28,"ny":28,"refTime":"2023-08-07T21:00:00:Z","depth":0,"parameterNumber":3,"parameterNumberName":"V-component_of_WINDS"},"data":[0,0,0,0,0,0,0,0,0,0,0,0,0,0,0,0,0,0,0,0,0,0,0,0,0,0,0,0,0,0,0,0,0,0,0,0,0,0,0,0,0,0,0,0,0,0,0,0,0,0,0,0,0,0,0,0,0,0,6.1855,6.1855,0,6.1833,6.1832,6.1832,6.1746,6.1744,6.1742,6.174,6.1719,6.172,6.1721,0,0,0,0,0,0,0,0,0,0,0,0,0,6.1826,6.1827,6.1855,6.1855,6.1855,6.1833,6.1832,6.1832,6.1746,6.1744,6.1742,6.1739,6.1718,6.172,6.1721,0,0,0,0,0,0,0,0,0,0,0,0,0,6.1825,6.1828,6.1855,6.1809,6.1805,6.1833,6.1832,6.1832,6.1747,6.1744,6.1741,6.1738,6.1718,6.1719,6.1721,6.1792,0,0,6.1727,6.1728,0,0,0,0,0,0,0,0,6.1825,6.1826,6.1816,6.1813,6.1808,6.1789,6.1814,6.1819,6.1748,6.1769,6.174,6.1737,6.1745,6.1744,6.1746,6.1791,6.179,6.1727,6.1728,6.1729,6.173,0,0,0,0,0,0,0,6.1825,6.1827,6.1846,6.1816,6.1811,6.179,6.1787,6.1815,6.1774,6.1767,6.1761,6.1759,6.1742,6.1745,6.1745,6.179,6.1727,6.1729,6.173,6.1731,6.1892,6.1895,0,0,0,0,0,0,6.1832,6.1827,6.1847,6.1846,6.1809,6.1793,6.1789,6.1798,6.1773,6.1766,6.1762,6.1755,6.1743,6.1743,6.1744,6.1825,6.1729,6.1731,6.1732,6.1889,6.1893,6.1896,0,0,0,0,0,0,6.1831,6.1834,6.1848,6.1835,6.1835,6.1797,6.1807,6.1799,6.1802,6.1769,6.1762,6.1772,6.1741,6.1741,6.1781,6.1823,6.1732,6.1734,6.1885,6.189,6.1895,6.1988,0,0,0,0,0,0,6.1831,6.1835,6.1861,6.1836,6.1836,6.1885,6.181,6.1801,6.1805,6.1797,6.1777,6.1771,6.1738,6.1778,6.1783,6.1824,6.1735,6.1881,6.1887,6.1893,6.1981,6.1996,6.2008,0,0,0,0,0,6.183,6.1888,6.1862,6.1865,6.1868,6.1887,6.1887,6.1848,6.1809,6.1835,6.1814,6.1771,6.1818,6.1783,6.1787,6.183,6.1878,6.1886,6.1893,6.1975,6.1993,6.2008,0,0,0,0,0,0,6.1919,6.1884,6.1855,6.1907,6.1901,6.1873,6.1904,6.1868,6.1873,6.1865,6.1817,6.1813,6.186,6.1849,6.1811,6.1897,6.1841,6.1849,6.1903,6.1919,6.1932,6.1934,6.1737,0,0,0,0,0,6.1945,6.1963,6.1932,6.198,6.1979,6.1943,6.195,6.192,6.1912,6.1909,6.1891,6.1885,6.1899,6.1908,6.1919,6.198,6.1974,6.2011,6.2025,6.2036,6.2043,6.2075,6.2091,6.192,6.192,6.1919,0,0,6.1998,6.1981,6.1995,6.1998,6.199,6.2011,6.1941,6.1966,6.1981,6.1913,6.1949,6.1936,6.1926,6.1977,6.1998,6.1969,6.209,6.2045,6.2054,6.2055,6.2084,6.21,6.2115,6.1924,6.1924,6.1923,0,0,6.2105,6.2094,6.2133,6.2127,6.2115,6.2091,6.2101,6.2078,6.2067,6.2102,6.2052,6.207,6.2094,6.2089,6.209,6.2197,6.2158,6.2202,6.2271,6.2303,6.2316,6.2328,6.2366,6.238,6.2209,6.221,6.221,0,6.2172,6.2201,6.2158,6.2186,6.2189,6.2129,6.2169,6.2165,6.2158,6.2161,6.2129,6.2158,6.2147,6.2196,6.2222,6.2225,6.2235,6.2203,6.2318,6.2329,6.2339,6.2375,6.239,6.2215,6.2214,6.2214,6.2213,0,6.2284,6.2305,6.2338,6.2333,6.2339,6.2373,6.2337,6.2349,6.2319,6.2299,6.2336,6.2321,6.2328,6.2337,6.2309,6.2383,6.2365,6.2326,6.2268,6.2362,6.2395,6.2408,6.2223,6.2221,6.2219,6.2218,0,0,6.2445,6.2416,6.2429,6.2426,6.241,6.2425,6.2457,6.2463,6.2475,6.2472,6.2498,6.252,6.2484,6.2485,6.2456,6.2484,6.257,6.2441,6.244,6.2465,6.265,6.2679,6.2695,6.2544,6.2547,6.2549,6.2651,0,6.2547,6.2598,6.2562,6.262,6.2639,6.2583,6.2611,6.2604,6.2586,6.26,6.2581,6.2597,6.2548,6.2549,6.2574,6.2554,6.2606,6.2546,6.2568,6.2569,6.2571,6.2712,6.2743,6.284,6.2663,6.2665,6.2667,0,6.2671,6.2674,6.2735,6.2715,6.2722,6.2747,6.275,6.2764,6.2756,6.2741,6.2743,6.2707,6.2737,6.2682,6.2723,6.2684,6.269,6.2682,6.2685,6.2685,6.2623,6.2716,6.287,6.2885,6.2687,6.2685,6.2684,0,6.2782,6.2802,6.284,6.284,6.2818,6.2837,6.2829,6.2818,6.2824,6.2827,6.2831,6.2838,6.2842,6.2848,6.2815,6.2778,6.2861,6.2803,6.285,6.2851,6.2869,6.2868,6.3026,6.2875,6.2875,6.2875,6.2874,0,6.2899,6.2938,6.289,6.2914,6.2956,6.2914,6.2957,6.2943,6.2934,6.2955,6.2907,6.2928,6.2883,6.2899,6.2874,6.2912,6.2914,6.2903,6.2896,6.2907,6.2909,6.291,6.2903,6.2879,6.2878,6.2877,6.2876,0,6.303,6.2999,6.3037,6.3014,6.3009,6.3041,6.3021,6.3042,6.3022,6.3048,6.3052,6.302,6.3036,6.3004,6.3017,6.3,6.3054,6.3036,6.3057,6.3051,6.31,6.3096,6.3264,6.3284,6.3121,6.3122,6.3124,0,6.3106,6.3135,6.3114,6.3124,6.3119,6.3136,6.3142,6.3103,6.3111,6.3105,6.3127,6.314,6.3147,6.3177,6.3155,6.3164,6.3146,6.3205,6.3147,6.3158,6.3147,6.3145,6.3148,6.3216,6.3218,6.322,6.3221,0,6.3244,6.3228,6.3238,6.3244,6.3253,6.3256,6.3255,6.3267,6.3225,6.3237,6.3253,6.3259,6.3272,6.3285,6.329,6.3282,6.3245,6.324,6.3251,6.3262,6.3273,6.3267,6.3088,6.3236,6.3234,6.3233,6.3232,6.3232,6.3349,6.3372,6.3362,6.3376,6.3371,6.3372,6.3391,6.3373,6.3385,6.3392,6.3369,6.3391,6.3383,6.3385,6.3381,6.3398,6.3372,6.3388,6.3392,6.3397,6.3405,6.3271,6.3399,6.3398,6.3398,6.3397,6.3397,0,6.3485,6.3476,6.3489,6.3489,6.3501,6.3465,6.3463,6.3474,6.3494,6.349,6.3498,6.3518,6.353,6.351,6.352,6.3537,6.3521,6.3541,6.3539,6.3538,6.3428,6.3417,6.3554,6.3554,6.3554,6.3554,6.3554,6.3554,6.3557,6.3594,6.3577,6.3611,6.3602,6.3622,6.3624,6.3625,6.3621,6.3645,6.3655,6.3642,6.3631,6.364,6.365,6.3644,6.3649,6.3676,6.3664,6.3561,6.3546,6.3531,6.352,6.3678,6.3678,6.3772,6.3773,6.3774]}]]